| time (UTC) | temp F | wind direction | speed knots | gust knots | rain 1hr in | rain 24hr in | rain mn in | humidity % | barometer mb |
| 20260906045028 | 68 | 5 | 0.0 | 0.0 | 0.00 | 0.00 | 0.00 | 13 | 1009.0 |
| 20260906044555 | 69 | 5 | 0.0 | 0.0 | 0.00 | 0.00 | 0.00 | 13 | 1009.1 |
| 20260906044031 | 69 | 5 | 0.0 | 0.0 | 0.00 | 0.00 | 0.00 | 14 | 1009.1 |
| 20260906043542 | 69 | 5 | 0.0 | 0.0 | 0.00 | 0.00 | 0.00 | 15 | 1009.1 |
| 20260906043007 | 69 | 5 | 0.0 | 0.0 | 0.00 | 0.00 | 0.00 | 16 | 1009.0 |
| 20260906042546 | 69 | 5 | 0.0 | 0.0 | 0.00 | 0.00 | 0.00 | 16 | 1009.0 |
| 20260906042011 | 69 | 5 | 0.0 | 0.0 | 0.00 | 0.00 | 0.00 | 16 | 1009.0 |
| 20260906041542 | 69 | 5 | 0.0 | 0.0 | 0.00 | 0.00 | 0.00 | 17 | 1009.0 |
| 20260906041003 | 69 | 5 | 0.0 | 0.0 | 0.00 | 0.00 | 0.00 | 16 | 1009.0 |
| 20260906040533 | 69 | 5 | 0.0 | 0.0 | 0.00 | 0.00 | 0.00 | 16 | 1009.0 |
| 20260906040053 | 69 | 5 | 0.0 | 0.0 | 0.00 | 0.00 | 0.00 | 16 | 1009.4 |
| 20260906035521 | 69 | 5 | 0.0 | 0.0 | 0.00 | 0.00 | 0.00 | 17 | 1009.4 |
| 20260906035050 | 69 | 5 | 0.0 | 0.0 | 0.00 | 0.00 | 0.00 | 17 | 1009.4 |
| 20260906034526 | 69 | 5 | 0.0 | 0.0 | 0.00 | 0.00 | 0.00 | 18 | 1009.4 |
| 20260906034051 | 69 | 5 | 0.0 | 0.0 | 0.00 | 0.00 | 0.00 | 18 | 1009.4 |
| 20260906033523 | 69 | 5 | 0.0 | 0.0 | 0.00 | 0.00 | 0.00 | 18 | 1009.4 |
| 20260906033051 | 69 | 5 | 0.0 | 0.0 | 0.00 | 0.00 | 0.00 | 20 | 1009.6 |
| 20260906032515 | 69 | 5 | 0.0 | 0.0 | 0.00 | 0.00 | 0.00 | 21 | 1009.6 |
| 20260906032047 | 69 | 5 | 0.0 | 0.0 | 0.00 | 0.00 | 0.00 | 22 | 1009.6 |
| 20260906031517 | 69 | 5 | 0.0 | 0.0 | 0.00 | 0.00 | 0.00 | 24 | 1009.5 |
| 20260906031040 | 69 | 5 | 0.0 | 0.0 | 0.00 | 0.00 | 0.00 | 25 | 1009.5 |
| 20260906030509 | 69 | 5 | 0.0 | 0.0 | 0.00 | 0.00 | 0.00 | 25 | 1009.5 |
| 20260906030038 | 69 | 5 | 0.0 | 0.0 | 0.00 | 0.00 | 0.00 | 26 | 1009.4 |
| 20260906025503 | 69 | 5 | 0.0 | 0.0 | 0.00 | 0.00 | 0.00 | 26 | 1009.4 |
| 20260906025034 | 69 | 5 | 0.0 | 0.0 | 0.00 | 0.00 | 0.00 | 27 | 1009.4 |
| 20260906024555 | 70 | 5 | 0.0 | 0.0 | 0.00 | 0.00 | 0.00 | 27 | 1009.4 |
| 20260906024026 | 70 | 5 | 0.0 | 0.0 | 0.00 | 0.00 | 0.00 | 28 | 1009.4 |
| 20260906023547 | 70 | 5 | 0.0 | 0.0 | 0.00 | 0.00 | 0.00 | 29 | 1009.4 |
| 20260906023012 | 70 | 5 | 0.0 | 0.0 | 0.00 | 0.00 | 0.00 | 30 | 1008.9 |
| 20260906022544 | 70 | 5 | 0.0 | 0.0 | 0.00 | 0.00 | 0.00 | 32 | 1008.9 |
| 20260906022012 | 70 | 5 | 0.0 | 0.0 | 0.00 | 0.00 | 0.00 | 33 | 1008.9 |
| 20260906021542 | 70 | 5 | 0.0 | 0.0 | 0.00 | 0.00 | 0.00 | 34 | 1008.7 |
| 20260906021009 | 70 | 5 | 0.0 | 0.0 | 0.00 | 0.00 | 0.00 | 34 | 1008.7 |
| 20260906020539 | 70 | 5 | 0.0 | 0.0 | 0.00 | 0.00 | 0.00 | 36 | 1008.7 |
| 20260906020005 | 70 | 5 | 0.0 | 0.0 | 0.00 | 0.00 | 0.00 | 37 | 1008.7 |
| 20260906015537 | 70 | 5 | 0.0 | 0.0 | 0.00 | 0.00 | 0.00 | 39 | 1008.7 |
| 20260906015005 | 71 | 5 | 0.0 | 0.0 | 0.00 | 0.00 | 0.00 | 39 | 1008.7 |
| 20260906014536 | 71 | 5 | 0.0 | 0.0 | 0.00 | 0.00 | 0.00 | 40 | 1008.8 |
| 20260906014057 | 71 | 5 | 0.0 | 0.0 | 0.00 | 0.00 | 0.00 | 41 | 1008.8 |
| 20260906013531 | 71 | 5 | 0.0 | 0.0 | 0.00 | 0.00 | 0.00 | 43 | 1008.8 |
| 20260906013103 | 71 | 5 | 0.0 | 0.0 | 0.00 | 0.00 | 0.00 | 44 | 1008.7 |
| 20260906012538 | 71 | 5 | 0.0 | 0.0 | 0.00 | 0.00 | 0.00 | 46 | 1008.7 |
| 20260906012100 | 71 | 5 | 0.0 | 0.0 | 0.00 | 0.00 | 0.00 | 48 | 1008.7 |
| 20260906011536 | 71 | 5 | 0.0 | 0.0 | 0.00 | 0.00 | 0.00 | 48 | 1008.6 |
| 20260906011058 | 71 | 5 | 0.0 | 0.0 | 0.00 | 0.00 | 0.00 | 50 | 1008.6 |
| 20260906010531 | 72 | 5 | 0.0 | 0.0 | 0.00 | 0.00 | 0.00 | 51 | 1008.6 |
| 20260906010055 | 72 | 5 | 0.0 | 0.0 | 0.00 | 0.00 | 0.00 | 52 | 1008.2 |
| 20260906005526 | 72 | 5 | 0.0 | 0.0 | 0.00 | 0.00 | 0.00 | 51 | 1008.2 |
| 20260906005047 | 72 | 5 | 0.0 | 0.0 | 0.00 | 0.00 | 0.00 | 51 | 1008.2 |
| 20260906004514 | 72 | 5 | 0.0 | 0.0 | 0.00 | 0.00 | 0.00 | 54 | 1008.0 |
| 20260906004044 | 72 | 5 | 0.0 | 0.0 | 0.00 | 0.00 | 0.00 | 56 | 1008.0 |
| 20260906003518 | 72 | 5 | 0.0 | 0.0 | 0.00 | 0.00 | 0.00 | 54 | 1008.0 |
| 20260906003043 | 72 | 5 | 0.0 | 0.0 | 0.00 | 0.00 | 0.00 | 55 | 1007.9 |
| 20260906002512 | 72 | 5 | 0.0 | 0.0 | 0.00 | 0.00 | 0.00 | 57 | 1007.9 |
| 20260906002041 | 72 | 5 | 0.0 | 0.0 | 0.00 | 0.00 | 0.00 | 59 | 1007.9 |
| 20260906001507 | 72 | 5 | 0.0 | 0.0 | 0.00 | 0.00 | 0.00 | 60 | 1007.7 |
| 20260906001029 | 73 | 5 | 0.0 | 0.0 | 0.00 | 0.00 | 0.00 | 57 | 1007.7 |
| 20260906000557 | 73 | 5 | 0.0 | 0.0 | 0.00 | 0.00 | 0.00 | 55 | 1007.7 |
| 20260906000027 | 73 | 5 | 0.0 | 0.0 | 0.00 | 0.00 | 0.00 | 58 | 1007.5 |
| 20260905235550 | 73 | 5 | 0.0 | 0.0 | 0.00 | 0.00 | 0.00 | 58 | 1007.5 |
| 20260905235020 | 73 | 5 | 0.0 | 0.0 | 0.00 | 0.00 | 0.00 | 61 | 1007.5 |
| 20260905234545 | 73 | 5 | 0.0 | 0.0 | 0.00 | 0.00 | 0.00 | 61 | 1007.4 |
| 20260905234019 | 73 | 5 | 0.0 | 0.0 | 0.00 | 0.00 | 0.00 | 60 | 1007.4 |
| 20260905233543 | 73 | 5 | 0.0 | 0.0 | 0.00 | 0.00 | 0.00 | 62 | 1007.4 |
| 20260905233011 | 74 | 5 | 0.0 | 0.0 | 0.00 | 0.00 | 0.00 | 62 | 1007.3 |
| 20260905232541 | 74 | 5 | 0.0 | 0.0 | 0.00 | 0.00 | 0.00 | 61 | 1007.3 |
| 20260905232006 | 74 | 5 | 0.0 | 0.0 | 0.00 | 0.00 | 0.00 | 58 | 1007.3 |
| 20260905231539 | 74 | 5 | 0.0 | 0.0 | 0.00 | 0.00 | 0.00 | 58 | 1007.2 |
| 20260905231021 | 74 | 5 | 0.0 | 0.0 | 0.00 | 0.00 | 0.00 | 55 | 1007.2 |
| 20260905230545 | 74 | 5 | 0.0 | 0.0 | 0.00 | 0.00 | 0.00 | 57 | 1007.2 |
| 20260905230011 | 74 | 5 | 0.0 | 0.0 | 0.00 | 0.00 | 0.00 | 58 | 1007.2 |
| 20260905225542 | 74 | 5 | 0.0 | 0.0 | 0.00 | 0.00 | 0.00 | 57 | 1007.2 |
| 20260905225010 | 74 | 5 | 0.0 | 0.0 | 0.00 | 0.00 | 0.00 | 60 | 1007.2 |
| 20260905224600 | 74 | 5 | 0.0 | 0.0 | 0.00 | 0.00 | 0.00 | 61 | 1007.2 |
| 20260905224016 | 74 | 5 | 0.0 | 0.0 | 0.00 | 0.00 | 0.00 | 63 | 1007.2 |
| 20260905223533 | 74 | 5 | 0.0 | 0.0 | 0.00 | 0.00 | 0.00 | 65 | 1007.2 |
| 20260905223055 | 74 | 5 | 0.0 | 0.0 | 0.00 | 0.00 | 0.00 | 66 | 1007.2 |
| 20260905222523 | 74 | 5 | 0.0 | 0.0 | 0.00 | 0.00 | 0.00 | 67 | 1007.2 |
| 20260905222054 | 74 | 5 | 0.0 | 0.0 | 0.00 | 0.00 | 0.00 | 68 | 1007.2 |
| 20260905221524 | 74 | 5 | 0.0 | 0.0 | 0.00 | 0.00 | 0.00 | 69 | 1007.1 |
| 20260905221053 | 74 | 5 | 0.0 | 0.0 | 0.00 | 0.00 | 0.00 | 71 | 1007.1 |
| 20260905220518 | 75 | 5 | 0.0 | 0.9 | 0.00 | 0.00 | 0.00 | 71 | 1007.1 |
| 20260905220050 | 75 | 5 | 0.0 | 0.9 | 0.00 | 0.00 | 0.00 | 71 | 1007.5 |
| 20260905215519 | 75 | 5 | 0.0 | 0.0 | 0.00 | 0.00 | 0.00 | 72 | 1007.5 |
| 20260905215054 | 75 | 5 | 0.0 | 0.0 | 0.00 | 0.00 | 0.00 | 73 | 1007.5 |
| 20260905214514 | 75 | 5 | 0.0 | 0.0 | 0.00 | 0.00 | 0.00 | 73 | 1007.6 |
| 20260905214046 | 75 | 5 | 0.0 | 0.0 | 0.00 | 0.00 | 0.00 | 74 | 1007.6 |
| 20260905213515 | 75 | 5 | 0.0 | 0.0 | 0.00 | 0.00 | 0.00 | 74 | 1007.6 |
| 20260905213031 | 75 | 5 | 0.0 | 0.0 | 0.00 | 0.00 | 0.00 | 74 | 1007.9 |
| 20260905212557 | 76 | 5 | 0.0 | 0.0 | 0.00 | 0.00 | 0.00 | 74 | 1007.9 |
| 20260905212020 | 76 | 5 | 0.0 | 0.0 | 0.00 | 0.00 | 0.00 | 74 | 1007.9 |
| 20260905211603 | 76 | 5 | 0.0 | 0.0 | 0.00 | 0.00 | 0.00 | 75 | 1008.0 |
| 20260905211017 | 76 | 5 | 0.0 | 0.0 | 0.00 | 0.00 | 0.00 | 74 | 1008.0 |
| 20260905210538 | 76 | 5 | 0.0 | 0.0 | 0.00 | 0.00 | 0.00 | 74 | 1008.0 |
| 20260905210117 | 76 | 5 | 0.0 | 0.0 | 0.00 | 0.00 | 0.00 | 75 | 1008.0 |
| 20260905205532 | 76 | 5 | 0.0 | 0.0 | 0.00 | 0.00 | 0.00 | 75 | 1008.0 |
| 20260905205056 | 76 | 5 | 0.0 | 0.0 | 0.00 | 0.00 | 0.00 | 75 | 1008.0 |
| 20260905204531 | 76 | 5 | 0.0 | 0.0 | 0.00 | 0.00 | 0.00 | 75 | 1008.1 |
| 20260905204100 | 76 | 5 | 0.0 | 0.0 | 0.00 | 0.00 | 0.00 | 75 | 1008.1 |
| 20260905203522 | 77 | 5 | 0.0 | 0.0 | 0.00 | 0.00 | 0.00 | 75 | 1008.1 |
| 20260905203113 | 77 | 5 | 0.0 | 0.0 | 0.00 | 0.00 | 0.00 | 76 | 1008.2 |
| 20260905202531 | 77 | 5 | 0.0 | 0.0 | 0.00 | 0.00 | 0.00 | 76 | 1008.2 |
| 20260905202057 | 77 | 5 | 0.0 | 0.0 | 0.00 | 0.00 | 0.00 | 75 | 1008.2 |
| 20260905201539 | 77 | 5 | 0.0 | 0.0 | 0.00 | 0.00 | 0.00 | 75 | 1008.4 |
| 20260905201058 | 77 | 5 | 0.0 | 0.0 | 0.00 | 0.00 | 0.00 | 76 | 1008.4 |
| 20260905200530 | 77 | 5 | 0.0 | 0.0 | 0.00 | 0.00 | 0.00 | 72 | 1008.4 |
| 20260905200058 | 77 | 5 | 0.0 | 0.0 | 0.00 | 0.00 | 0.00 | 74 | 1008.5 |
| 20260905195520 | 77 | 5 | 0.0 | 0.0 | 0.00 | 0.00 | 0.00 | 75 | 1008.5 |
| 20260905195048 | 77 | 5 | 0.0 | 0.0 | 0.00 | 0.00 | 0.00 | 75 | 1008.5 |
| 20260905194523 | 76 | 5 | 0.0 | 0.0 | 0.00 | 0.00 | 0.00 | 75 | 1008.6 |
| 20260905194044 | 76 | 5 | 0.0 | 0.0 | 0.00 | 0.00 | 0.00 | 75 | 1008.6 |
| 20260905193522 | 76 | 5 | 0.0 | 0.0 | 0.00 | 0.00 | 0.00 | 75 | 1008.6 |
| 20260905193050 | 76 | 5 | 0.0 | 0.0 | 0.00 | 0.00 | 0.00 | 74 | 1008.8 |
| 20260905192516 | 76 | 5 | 0.0 | 0.0 | 0.00 | 0.00 | 0.00 | 70 | 1008.8 |
| 20260905192045 | 75 | 5 | 0.0 | 0.0 | 0.00 | 0.00 | 0.00 | 68 | 1008.8 |
| 20260905191523 | 75 | 5 | 0.0 | 0.0 | 0.00 | 0.00 | 0.00 | 71 | 1009.1 |
| 20260905191049 | 74 | 5 | 0.0 | 0.0 | 0.00 | 0.00 | 0.00 | 68 | 1009.1 |
| 20260905190513 | 74 | 5 | 0.0 | 0.0 | 0.00 | 0.00 | 0.00 | 71 | 1009.1 |
| 20260905190044 | 74 | 5 | 0.0 | 0.0 | 0.00 | 0.00 | 0.00 | 69 | 1009.2 |
| 20260905185517 | 74 | 5 | 0.0 | 0.0 | 0.00 | 0.00 | 0.00 | 72 | 1009.2 |
| 20260905185045 | 74 | 5 | 0.0 | 0.0 | 0.00 | 0.00 | 0.00 | 72 | 1009.2 |
| 20260905184519 | 74 | 5 | 0.0 | 0.0 | 0.00 | 0.00 | 0.00 | 73 | 1009.7 |
| 20260905184054 | 74 | 5 | 0.0 | 0.0 | 0.00 | 0.00 | 0.00 | 75 | 1009.7 |
| 20260905183521 | 75 | 5 | 0.0 | 0.0 | 0.00 | 0.00 | 0.00 | 74 | 1009.7 |
| 20260905183055 | 75 | 5 | 0.0 | 0.0 | 0.00 | 0.00 | 0.00 | 75 | 1008.9 |
| 20260905182526 | 76 | 5 | 0.0 | 0.0 | 0.00 | 0.00 | 0.00 | 74 | 1008.9 |
| 20260905182054 | 76 | 5 | 0.0 | 0.0 | 0.00 | 0.00 | 0.00 | 73 | 1008.9 |
| 20260905181538 | 77 | 5 | 0.0 | 0.0 | 0.00 | 0.00 | 0.00 | 76 | 1009.0 |
| 20260905181007 | 77 | 5 | 0.0 | 0.0 | 0.00 | 0.00 | 0.00 | 77 | 1009.0 |
| 20260905180538 | 79 | 5 | 0.0 | 0.0 | 0.00 | 0.00 | 0.00 | 76 | 1009.0 |
| 20260905180010 | 80 | 5 | 0.0 | 0.0 | 0.00 | 0.00 | 0.00 | 74 | 1008.9 |
| 20260905175547 | 81 | 5 | 0.0 | 0.0 | 0.00 | 0.00 | 0.00 | 71 | 1008.9 |
| 20260905175012 | 82 | 5 | 0.0 | 3.5 | 0.00 | 0.00 | 0.00 | 71 | 1008.9 |
| 20260905174548 | 83 | 5 | 0.0 | 3.5 | 0.00 | 0.00 | 0.00 | 72 | 1008.8 |
| 20260905174008 | 84 | 9 | 0.0 | 3.5 | 0.00 | 0.00 | 0.00 | 71 | 1008.8 |
| 20260905173535 | 85 | 9 | 0.0 | 3.5 | 0.00 | 0.00 | 0.00 | 70 | 1008.8 |
| 20260905173058 | 86 | 5 | 0.0 | 2.6 | 0.00 | 0.00 | 0.00 | 69 | 1008.8 |
| 20260905172528 | 86 | 5 | 0.0 | 2.6 | 0.00 | 0.00 | 0.00 | 66 | 1008.8 |
| 20260905172057 | 87 | 5 | 0.0 | 1.7 | 0.00 | 0.00 | 0.00 | 67 | 1008.8 |
| 20260905171535 | 87 | 5 | 0.0 | 0.9 | 0.00 | 0.00 | 0.00 | 71 | 1008.9 |
| 20260905171043 | 87 | 5 | 0.0 | 1.7 | 0.00 | 0.00 | 0.00 | 71 | 1008.9 |
| 20260905170510 | 87 | 5 | 0.0 | 1.7 | 0.00 | 0.00 | 0.00 | 66 | 1008.9 |
| 20260905170037 | 86 | 5 | 0.0 | 1.7 | 0.00 | 0.00 | 0.00 | 71 | 1008.9 |
| 20260905165503 | 86 | 5 | 0.0 | 3.5 | 0.00 | 0.00 | 0.00 | 72 | 1008.9 |
| 20260905165031 | 86 | 5 | 0.0 | 3.5 | 0.00 | 0.00 | 0.00 | 72 | 1008.9 |
| 20260905164554 | 86 | 5 | 0.0 | 2.6 | 0.00 | 0.00 | 0.00 | 72 | 1009.3 |
| 20260905164028 | 86 | 5 | 0.0 | 1.7 | 0.00 | 0.00 | 0.00 | 72 | 1009.3 |
| 20260905163555 | 85 | 5 | 0.0 | 1.7 | 0.00 | 0.00 | 0.00 | 74 | 1009.3 |
| 20260905163028 | 85 | 5 | 0.0 | 1.7 | 0.00 | 0.00 | 0.00 | 71 | 1009.6 |
| 20260905162550 | 86 | 5 | 0.0 | 2.6 | 0.00 | 0.00 | 0.00 | 69 | 1009.6 |
| 20260905162023 | 86 | 5 | 1.7 | 2.6 | 0.00 | 0.00 | 0.00 | 67 | 1009.6 |
| 20260905161549 | 86 | 5 | 0.0 | 4.3 | 0.00 | 0.00 | 0.00 | 70 | 1009.7 |
| 20260905161015 | 85 | 5 | 0.0 | 4.3 | 0.00 | 0.00 | 0.00 | 70 | 1009.7 |
| 20260905160539 | 84 | 348 | 0.0 | 0.0 | 0.00 | 0.00 | 0.00 | 71 | 1009.7 |
| 20260905160010 | 84 | 341 | 0.0 | 0.0 | 0.00 | 0.00 | 0.00 | 71 | 1009.7 |
| 20260905155537 | 83 | 341 | 0.0 | 0.0 | 0.00 | 0.00 | 0.00 | 74 | 1009.7 |
| 20260905155100 | 83 | 341 | 0.0 | 0.0 | 0.00 | 0.00 | 0.00 | 74 | 1009.7 |
| 20260905155003 | 83 | 341 | 0.0 | 0.0 | 0.00 | 0.00 | 0.00 | 74 | 1009.7 |
| 20260905154533 | 83 | 341 | 0.0 | 0.0 | 0.00 | 0.00 | 0.00 | 74 | 1009.8 |
| 20260905154059 | 83 | 341 | 0.0 | 0.0 | 0.00 | 0.00 | 0.00 | 74 | 1009.8 |
| 20260905153531 | 83 | 341 | 0.0 | 0.0 | 0.00 | 0.00 | 0.00 | 73 | 1009.8 |
| 20260905153055 | 83 | 341 | 0.0 | 0.0 | 0.00 | 0.00 | 0.00 | 74 | 1009.8 |
| 20260905152526 | 83 | 341 | 0.0 | 0.0 | 0.00 | 0.00 | 0.00 | 73 | 1009.8 |
| 20260905152052 | 83 | 341 | 0.0 | 0.0 | 0.00 | 0.00 | 0.00 | 73 | 1009.8 |
| 20260905151523 | 82 | 341 | 0.0 | 0.0 | 0.00 | 0.00 | 0.00 | 73 | 1009.9 |
| 20260905151050 | 82 | 341 | 0.0 | 0.0 | 0.00 | 0.00 | 0.00 | 74 | 1009.9 |
| 20260905150513 | 81 | 341 | 0.0 | 0.0 | 0.00 | 0.00 | 0.00 | 74 | 1009.9 |
| 20260905150041 | 81 | 341 | 0.0 | 0.0 | 0.00 | 0.00 | 0.00 | 73 | 1010.1 |
| 20260905145506 | 81 | 341 | 0.0 | 0.0 | 0.00 | 0.00 | 0.00 | 73 | 1010.1 |
| 20260905145036 | 81 | 341 | 0.0 | 0.0 | 0.00 | 0.00 | 0.00 | 73 | 1010.1 |
| 20260905144502 | 81 | 341 | 0.0 | 0.0 | 0.00 | 0.00 | 0.00 | 70 | 1010.2 |
| 20260905144033 | 80 | 341 | 0.0 | 0.0 | 0.00 | 0.00 | 0.00 | 70 | 1010.2 |
| 20260905143559 | 80 | 341 | 0.0 | 0.0 | 0.00 | 0.00 | 0.00 | 73 | 1010.2 |
| 20260905143031 | 80 | 341 | 0.0 | 0.0 | 0.00 | 0.00 | 0.00 | 71 | 1010.3 |
| 20260905142557 | 80 | 341 | 0.0 | 0.0 | 0.00 | 0.00 | 0.00 | 71 | 1010.3 |
| 20260905142030 | 79 | 341 | 0.0 | 0.0 | 0.00 | 0.00 | 0.00 | 69 | 1010.3 |
| 20260905141600 | 79 | 341 | 0.0 | 0.0 | 0.00 | 0.00 | 0.00 | 69 | 1010.7 |
| 20260905141033 | 78 | 341 | 0.0 | 0.0 | 0.00 | 0.00 | 0.00 | 66 | 1010.7 |
| 20260905140600 | 78 | 341 | 0.0 | 0.0 | 0.00 | 0.00 | 0.00 | 59 | 1010.7 |
| 20260905140501 | 77 | 341 | 0.0 | 0.0 | 0.00 | 0.00 | 0.00 | 60 | 1010.7 |
| 20260905140038 | 77 | 341 | 0.0 | 0.0 | 0.00 | 0.00 | 0.00 | 47 | 1010.8 |
| 20260905135501 | 76 | 341 | 0.0 | 0.0 | 0.00 | 0.00 | 0.00 | 35 | 1010.8 |
| 20260905135031 | 75 | 341 | 0.0 | 0.0 | 0.00 | 0.00 | 0.00 | 32 | 1010.8 |
| 20260905134605 | 74 | 341 | 0.0 | 0.0 | 0.00 | 0.00 | 0.00 | 10 | 1011.0 |
| 20260905134501 | 74 | 341 | 0.0 | 0.0 | 0.00 | 0.00 | 0.00 | 7 | 1011.0 |
| 20260905134026 | 74 | 341 | 0.0 | 0.0 | 0.00 | 0.00 | 0.00 | 100 | 1011.0 |
| 20260905133550 | 73 | 341 | 0.0 | 0.0 | 0.00 | 0.00 | 0.00 | 100 | 1011.0 |
| 20260905133011 | 72 | 341 | 0.0 | 0.0 | 0.00 | 0.00 | 0.00 | 100 | 1011.1 |
| 20260905132539 | 71 | 341 | 0.0 | 0.0 | 0.00 | 0.00 | 0.00 | 1 | 1011.1 |
| 20260905132009 | 71 | 341 | 0.0 | 0.0 | 0.00 | 0.00 | 0.00 | 1 | 1011.1 |
| 20260905131538 | 71 | 341 | 0.0 | 0.0 | 0.00 | 0.00 | 0.00 | 1 | 1011.2 |
| 20260905131016 | 71 | 341 | 0.0 | 0.0 | 0.00 | 0.00 | 0.00 | 2 | 1011.2 |
| 20260905130541 | 70 | 341 | 0.0 | 0.0 | 0.00 | 0.00 | 0.00 | 2 | 1011.2 |
| 20260905130009 | 70 | 341 | 0.0 | 0.0 | 0.00 | 0.00 | 0.00 | 2 | 1011.1 |
| 20260905125537 | 70 | 341 | 0.0 | 0.0 | 0.00 | 0.00 | 0.00 | 2 | 1011.1 |
| 20260905125100 | 70 | 341 | 0.0 | 0.0 | 0.00 | 0.00 | 0.00 | 3 | 1011.1 |
| 20260905124537 | 70 | 341 | 0.0 | 0.0 | 0.00 | 0.00 | 0.00 | 3 | 1011.0 |
| 20260905124055 | 69 | 341 | 0.0 | 0.0 | 0.00 | 0.00 | 0.00 | 3 | 1011.0 |
| 20260905123517 | 69 | 341 | 0.0 | 0.0 | 0.00 | 0.00 | 0.00 | 3 | 1011.0 |
| 20260905123046 | 69 | 341 | 0.0 | 0.0 | 0.00 | 0.00 | 0.00 | 4 | 1011.0 |
| 20260905122510 | 69 | 341 | 0.0 | 0.0 | 0.00 | 0.00 | 0.00 | 4 | 1011.0 |
| 20260905122042 | 69 | 341 | 0.0 | 0.0 | 0.00 | 0.00 | 0.00 | 4 | 1011.0 |
| 20260905121515 | 68 | 341 | 0.0 | 0.0 | 0.00 | 0.00 | 0.00 | 5 | 1010.9 |
| 20260905121041 | 68 | 341 | 0.0 | 0.0 | 0.00 | 0.00 | 0.00 | 5 | 1010.9 |
| 20260905120505 | 68 | 341 | 0.0 | 0.0 | 0.00 | 0.00 | 0.00 | 5 | 1010.9 |
| 20260905120025 | 68 | 341 | 0.0 | 0.0 | 0.00 | 0.00 | 0.00 | 5 | 1010.6 |
| 20260905115549 | 68 | 341 | 0.0 | 0.0 | 0.00 | 0.00 | 0.00 | 5 | 1010.6 |
| 20260905115021 | 68 | 341 | 0.0 | 0.0 | 0.00 | 0.00 | 0.00 | 6 | 1010.6 |
| 20260905114545 | 68 | 341 | 0.0 | 0.0 | 0.00 | 0.00 | 0.00 | 6 | 1010.5 |
| 20260905114009 | 68 | 341 | 0.0 | 0.0 | 0.00 | 0.00 | 0.00 | 6 | 1010.5 |
| 20260905113541 | 68 | 341 | 0.0 | 0.0 | 0.00 | 0.00 | 0.00 | 7 | 1010.5 |
| 20260905113007 | 68 | 341 | 0.0 | 0.0 | 0.00 | 0.00 | 0.00 | 7 | 1010.4 |
| 20260905112537 | 68 | 341 | 0.0 | 0.0 | 0.00 | 0.00 | 0.00 | 6 | 1010.4 |
| 20260905112004 | 68 | 341 | 0.0 | 0.0 | 0.00 | 0.00 | 0.00 | 7 | 1010.4 |
| 20260905111539 | 68 | 341 | 0.0 | 0.0 | 0.00 | 0.00 | 0.00 | 7 | 1010.0 |
| 20260905111015 | 68 | 341 | 0.0 | 0.0 | 0.00 | 0.00 | 0.00 | 7 | 1010.0 |
| 20260905110544 | 68 | 341 | 0.0 | 0.0 | 0.00 | 0.00 | 0.00 | 7 | 1010.0 |
| 20260905110021 | 68 | 341 | 0.0 | 0.0 | 0.00 | 0.00 | 0.00 | 7 | 1009.9 |
| 20260905105551 | 68 | 341 | 0.0 | 0.0 | 0.00 | 0.00 | 0.00 | 7 | 1009.9 |
| 20260905105031 | 68 | 341 | 0.0 | 0.0 | 0.00 | 0.00 | 0.00 | 7 | 1009.9 |
| 20260905104557 | 68 | 341 | 0.0 | 0.0 | 0.00 | 0.00 | 0.00 | 8 | 1009.8 |
| 20260905104025 | 68 | 341 | 0.0 | 0.0 | 0.00 | 0.00 | 0.00 | 8 | 1009.8 |
| 20260905103557 | 68 | 341 | 0.0 | 0.0 | 0.00 | 0.00 | 0.00 | 9 | 1009.8 |
| 20260905103028 | 68 | 341 | 0.0 | 0.0 | 0.00 | 0.00 | 0.00 | 9 | 1009.7 |
| 20260905102551 | 68 | 341 | 0.0 | 0.0 | 0.00 | 0.00 | 0.00 | 9 | 1009.7 |
| 20260905102015 | 68 | 341 | 0.0 | 0.0 | 0.00 | 0.00 | 0.00 | 9 | 1009.7 |
| 20260905101547 | 68 | 341 | 0.0 | 0.0 | 0.00 | 0.00 | 0.00 | 10 | 1009.6 |
| 20260905101054 | 68 | 341 | 0.0 | 0.0 | 0.00 | 0.00 | 0.00 | 10 | 1009.6 |
| 20260905100525 | 68 | 341 | 0.0 | 0.0 | 0.00 | 0.00 | 0.00 | 11 | 1009.6 |
| 20260905100054 | 68 | 341 | 0.0 | 0.0 | 0.00 | 0.00 | 0.00 | 11 | 1009.4 |
| 20260905095520 | 68 | 341 | 0.0 | 0.0 | 0.00 | 0.00 | 0.00 | 11 | 1009.4 |
| 20260905095049 | 68 | 341 | 0.0 | 0.0 | 0.00 | 0.00 | 0.00 | 11 | 1009.4 |
| 20260905094517 | 68 | 341 | 0.0 | 0.0 | 0.00 | 0.00 | 0.00 | 11 | 1009.5 |
| 20260905094042 | 68 | 341 | 0.0 | 0.0 | 0.00 | 0.00 | 0.00 | 11 | 1009.5 |
| 20260905093517 | 68 | 341 | 0.0 | 0.0 | 0.00 | 0.00 | 0.00 | 11 | 1009.5 |
| 20260905093049 | 68 | 341 | 0.0 | 0.0 | 0.00 | 0.00 | 0.00 | 10 | 1009.5 |
| 20260905092524 | 68 | 341 | 0.0 | 0.0 | 0.00 | 0.00 | 0.00 | 10 | 1009.5 |
| 20260905092051 | 68 | 341 | 0.0 | 0.0 | 0.00 | 0.00 | 0.00 | 10 | 1009.5 |
| 20260905091544 | 68 | 341 | 0.0 | 0.0 | 0.00 | 0.00 | 0.00 | 11 | 1009.6 |
| 20260905091049 | 69 | 341 | 0.0 | 0.0 | 0.00 | 0.00 | 0.00 | 11 | 1009.6 |
| 20260905090524 | 69 | 341 | 0.0 | 0.0 | 0.00 | 0.00 | 0.00 | 11 | 1009.6 |
| 20260905090117 | 68 | 341 | 0.0 | 0.0 | 0.00 | 0.00 | 0.00 | 12 | 1009.8 |
| 20260905085524 | 69 | 341 | 0.0 | 0.0 | 0.00 | 0.00 | 0.00 | 12 | 1009.8 |
| 20260905085052 | 69 | 341 | 0.0 | 0.0 | 0.00 | 0.00 | 0.00 | 12 | 1009.8 |
| 20260905084527 | 69 | 341 | 0.0 | 0.0 | 0.00 | 0.00 | 0.00 | 12 | 1009.9 |
| 20260905084053 | 69 | 341 | 0.0 | 0.0 | 0.00 | 0.00 | 0.00 | 13 | 1009.9 |
| 20260905083526 | 69 | 341 | 0.0 | 0.0 | 0.00 | 0.00 | 0.00 | 13 | 1009.9 |
| 20260905083052 | 69 | 341 | 0.0 | 0.0 | 0.00 | 0.00 | 0.00 | 13 | 1010.1 |
| 20260905082524 | 69 | 341 | 0.0 | 0.0 | 0.00 | 0.00 | 0.00 | 13 | 1010.1 |
| 20260905082045 | 69 | 341 | 0.0 | 0.0 | 0.00 | 0.00 | 0.00 | 13 | 1010.1 |
| 20260905081508 | 69 | 341 | 0.0 | 0.0 | 0.00 | 0.00 | 0.00 | 14 | 1010.2 |
| 20260905081036 | 69 | 341 | 0.0 | 0.0 | 0.00 | 0.00 | 0.00 | 14 | 1010.2 |
| 20260905080504 | 69 | 341 | 0.0 | 0.0 | 0.00 | 0.00 | 0.00 | 15 | 1010.2 |
| 20260905080047 | 69 | 341 | 0.0 | 0.0 | 0.00 | 0.00 | 0.00 | 15 | 1010.4 |
| 20260905075510 | 69 | 341 | 0.0 | 0.0 | 0.00 | 0.00 | 0.00 | 15 | 1010.4 |
| 20260905075038 | 69 | 341 | 0.0 | 0.0 | 0.00 | 0.00 | 0.00 | 16 | 1010.4 |
| 20260905074524 | 69 | 341 | 0.0 | 0.0 | 0.00 | 0.00 | 0.00 | 16 | 1010.4 |
| 20260905074049 | 69 | 341 | 0.0 | 0.0 | 0.00 | 0.00 | 0.00 | 17 | 1010.4 |
| 20260905073512 | 69 | 341 | 0.0 | 0.0 | 0.00 | 0.00 | 0.00 | 17 | 1010.4 |
| 20260905073043 | 69 | 341 | 0.0 | 0.0 | 0.00 | 0.00 | 0.00 | 17 | 1010.4 |
| 20260905072506 | 69 | 341 | 0.0 | 0.0 | 0.00 | 0.00 | 0.00 | 18 | 1010.4 |
| 20260905072041 | 69 | 341 | 0.0 | 0.0 | 0.00 | 0.00 | 0.00 | 19 | 1010.4 |
| 20260905071502 | 69 | 341 | 0.0 | 0.0 | 0.00 | 0.00 | 0.00 | 19 | 1010.4 |
| 20260905071034 | 69 | 341 | 0.0 | 0.0 | 0.00 | 0.00 | 0.00 | 20 | 1010.4 |
| 20260905070600 | 69 | 341 | 0.0 | 0.0 | 0.00 | 0.00 | 0.00 | 20 | 1010.4 |
| 20260905070034 | 70 | 341 | 0.0 | 0.0 | 0.00 | 0.00 | 0.00 | 20 | 1010.7 |
| 20260905065558 | 70 | 341 | 0.0 | 0.0 | 0.00 | 0.00 | 0.00 | 20 | 1010.7 |
| 20260905065502 | 70 | 341 | 0.0 | 0.0 | 0.00 | 0.00 | 0.00 | 20 | 1010.7 |
| 20260905065030 | 70 | 341 | 0.0 | 0.0 | 0.00 | 0.00 | 0.00 | 20 | 1010.7 |
| 20260905064555 | 70 | 341 | 0.0 | 0.0 | 0.00 | 0.00 | 0.00 | 20 | 1010.9 |
| 20260905064033 | 70 | 341 | 0.0 | 0.0 | 0.00 | 0.00 | 0.00 | 19 | 1010.9 |
| 20260905063550 | 70 | 341 | 0.0 | 0.0 | 0.00 | 0.00 | 0.00 | 20 | 1010.9 |
| 20260905063024 | 70 | 341 | 0.0 | 0.0 | 0.00 | 0.00 | 0.00 | 19 | 1010.9 |
| 20260905062546 | 70 | 341 | 0.0 | 0.0 | 0.00 | 0.00 | 0.00 | 21 | 1010.9 |
| 20260905062008 | 70 | 341 | 0.0 | 0.0 | 0.00 | 0.00 | 0.00 | 22 | 1010.9 |
| 20260905061552 | 70 | 341 | 0.0 | 0.0 | 0.00 | 0.00 | 0.00 | 23 | 1010.9 |
| 20260905061052 | 70 | 341 | 0.0 | 0.0 | 0.00 | 0.00 | 0.00 | 24 | 1010.9 |
| 20260905060528 | 70 | 341 | 0.0 | 0.0 | 0.00 | 0.00 | 0.00 | 25 | 1010.9 |
| 20260905060059 | 70 | 341 | 0.0 | 0.0 | 0.00 | 0.00 | 0.00 | 25 | 1010.9 |
| 20260905055522 | 70 | 341 | 0.0 | 0.0 | 0.00 | 0.00 | 0.00 | 26 | 1010.9 |
| 20260905055049 | 70 | 341 | 0.0 | 0.0 | 0.00 | 0.00 | 0.00 | 27 | 1010.9 |
| 20260905054516 | 70 | 341 | 0.0 | 0.0 | 0.00 | 0.00 | 0.00 | 27 | 1011.1 |
| 20260905054040 | 71 | 341 | 0.0 | 0.0 | 0.00 | 0.00 | 0.00 | 27 | 1011.1 |
| 20260905053516 | 71 | 341 | 0.0 | 0.0 | 0.00 | 0.00 | 0.00 | 27 | 1011.1 |
| 20260905053046 | 71 | 341 | 0.0 | 0.0 | 0.00 | 0.00 | 0.00 | 26 | 1011.1 |
| 20260905052514 | 71 | 341 | 0.0 | 0.0 | 0.00 | 0.00 | 0.00 | 25 | 1011.1 |
| 20260905052044 | 71 | 341 | 0.0 | 0.0 | 0.00 | 0.00 | 0.00 | 25 | 1011.1 |
| 20260905051513 | 71 | 341 | 0.0 | 0.0 | 0.00 | 0.00 | 0.00 | 25 | 1011.3 |
| 20260905051042 | 71 | 341 | 0.0 | 0.0 | 0.00 | 0.00 | 0.00 | 26 | 1011.3 |
| 20260905050516 | 71 | 341 | 0.0 | 0.0 | 0.00 | 0.00 | 0.00 | 26 | 1011.3 |
| 20260905050042 | 71 | 341 | 0.0 | 0.0 | 0.00 | 0.00 | 0.00 | 27 | 1010.8 |
| 20260905045509 | 71 | 341 | 0.0 | 0.0 | 0.00 | 0.00 | 0.00 | 27 | 1010.8 |